Location: Staunton
(38.1490°N, 79.0720°W)
Time: 00:19:27
(UTC-05:00)

ISS - Pass Details

Date: 22 November 2020
Orbit: 418 x 421 km, 51.6° (Epoch: 26 November)

Event Time Altitude Azimuth Distance (km) Brightness Sun altitude
Rises 18:16:34 0° 253° (WSW) 2,352 2.0 -15.1°
Reaches altitude 10° 18:18:48 10° 265° (W) 1,491 0.4 -15.5°
Maximum altitude 18:21:49 30° 329° (NNW) 773 -2.3 -16.1°
Enters shadow 18:23:23 20° 15° (NNE) 1,022 -2.1 -16.4°
